SL-16 DEB, 22619

Orbit data source: Space-Track

SL-16 DEB, 22619 is space debris in LEO originally from a launch on Fri, 26 Mar 1993 UTC launched from the Tyuratam Missile And Space Complex (TTMTR). Debris objects in space refer to the collection of defunct objects orbiting the Earth. Examples of debris include non-operational satellites, rocket bodies, and fragments generated from explosions, collisions, or faulty payload assembly.

Loading next visibility...
Identifier
22619, 1993-016AD
Orbit
LEO
Country
Flag of CISCIS
Related business
Manufacturer
Unknown
Mission
Spacecraft
Bus & Motor
Unknown
Mass
Unknown
Launch date (UTC)
1993-03-26 (32 years ago)
Launch vehicle
Unknown
Launch site
Tyuratam Missile And Space Complex (TTMTR)
Object type
Payload
Rocket body
Debris
Shape & HBR
Unknown
Radar Cross Section
Medium (>0.1 m² and <1 m²)

Expand to show TLE details & history
Last TLE update: 13 hours ago

TLE from 13 hours ago
0 SL-16 DEB
1 22619U 93016AD  25258.58459889  .00000017  00000-0  56109-4 0  9990
2 22619  70.9997  59.7179 0185826 174.6823 255.9086 13.73848088627383
Epoch: 2025-09-15T14:01Z
TLE epoch observation values (Epoch: 2025-09-15T14:01:49.344Z)
Latitude
61.74128°
Longitude
-105.93426°
Altitude
1,031.512 km
Speed
7.324 km/s
True Right ascension
06h 37m 14s
True Declination
61° 36' 11"
Sunlit
Object was in daylight at epoch
Visualization orbit readout
Latitude
Unknown
Longitude
Unknown
Altitude
Unknown
Speed
Unknown
Apparent Right ascension
Unknown
Apparent Declination
Unknown
Sunlit
N/A
Visualization observer readout
Local Sidereal Time
19:40:21
Azimuth
Unknown
Elevation
Unknown
Doppler factor
Unknown
Orbital elements
Apogee altitude
1,120.556 km
Perigee altitude
846.95 km
Semi-major axis
7,361.89 km
Eccentricity
0.01858
Inclination
70.9997°
RAAN
59.7179°
Arg. of periapsis
174.6823°
True anomaly
253.85532°
Mean anomaly
255.9086°
Eccentric anomaly
254.88075°
Mean motion
3.43605 °/min
Orbital period
104.77 mins
BSTAR
0.000056109
Loading maneuver chart data...
Computing Atmospheric mass density...
Loading historical data...
Loading historical data...
Loading historical data...
Loading historical data...
Loading historical data...
Loading historical data...
Loading historical data...

Documentation

Showing up to 5 results
|